Wind_Speed
50 52 52 52 53 54 54 56 58 59 60 61 62 62 60 59 59 58 56 54 52 50 49 49 49 50 51 52 51 51 50 49 49 48 49 50 51 52 52 52 52 52 52 51 51 50 49 48 47 47 46 47 47 47 47 47 47 47 47 48 49 51 53 55 54 53 52 52 53 55 57 59 60 60 60 60 60 60 61 61 62 62 61 60 60
52 53 54 54 54 52 51 54 57 58 60 62 65 65 64 62 61 61 60 59 57 56 56 56 56 56 55 55 54 53 53 53 51 50 50 50 51 52 53 54 54 54 54 54 53 53 53 52 51 50 49 49 49 49 49 49 49 49 49 49 49 50 51 53 54 54 55 55 54 55 56 58 60 61 61 61 61 61 61 62 62 63 63 63 62
52 53 53 53 54 54 55 57 59 62 64 65 66 66 66 64 63 62 63 63 63 63 63 64 64 63 62 60 58 56 55 55 54 53 53 53 53 53 53 54 55 55 55 55 56 56 56 55 55 54 53 52 52 51 51 51 51 51 51 51 51 51 51 52 53 53 55 57 57 57 57 58 59 61 63 64 64 63 63 63 63 63 64 64 64
49 51 54 54 55 56 59 61 63 64 64 64 64 64 66 66 65 65 65 66 68 69 69 69 70 70 69 66 63 59 56 55 56 56 56 56 56 55 54 54 54 55 55 56 57 58 58 58 58 57 57 56 55 55 54 54 53 53 53 53 53 53 54 54 54 54 55 56 58 59 59 60 60 60 62 64 66 66 66 66 66 66 66 66 65
46 48 53 57 59 61 62 63 64 63 62 61 61 61 63 66 66 66 66 66 69 72 73 72 72 72 69 65 60 56 53 52 53 56 58 59 58 57 56 56 56 55 55 56 58 59 59 60 60 60 59 59 59 58 58 57 57 56 56 55 55 55 55 56 56 56 56 56 58 59 60 62 62 63 63 63 64 66 67 69 69 69 69 69 68
50 51 54 58 59 57 57 58 59 60 60 59 59 60 62 64 64 64 63 61 63 67 70 70 70 69 67 64 59 55 54 53 52 53 55 57 59 60 59 59 59 58 57 58 59 59 59 60 61 61 61 62 62 62 61 61 61 60 60 59 59 58 57 57 58 58 58 58 59 59 60 61 63 64 65 66 66 66 67 68 69 70 70 70 70
54 55 56 57 52 45 44 49 53 55 56 56 57 60 61 61 61 62 61 59 59 63 67 69 69 68 67 65 62 59 56 53 52 52 53 53 55 57 59 60 61 61 60 60 60 60 59 59 60 61 62 62 63 64 64 64 64 64 64 63 63 62 61 61 60 60 60 60 60 61 61 62 63 64 65 67 68 69 68 68 69 70 71 72 73
54 55 55 55 52 48 50 53 55 55 56 56 57 59 60 59 59 58 57 59 63 66 68 69 68 68 68 67 64 60 56 54 53 54 56 55 55 55 57 59 61 62 63 63 63 62 61 61 62 62 63 63 64 64 65 66 67 67 67 66 66 66 66 65 64 63 63 62 62 63 63 63 64 65 65 66 67 69 70 70 71 70 71 72 73
54 55 55 55 55 56 57 58 58 57 57 57 57 59 59 59 59 57 56 59 66 69 70 70 68 69 70 70 67 63 61 60 60 60 61 61 60 59 59 60 61 62 63 65 66 66 65 66 66 65 65 65 65 65 66 67 68 69 69 69 69 69 69 68 68 68 67 66 66 65 65 65 65 66 67 67 67 69 70 70 72 72 72 72 73
55 55 56 56 57 58 59 58 58 58 58 58 58 59 60 60 60 59 59 61 65 67 69 70 70 70 71 71 69 67 65 65 65 65 65 64 64 64 64 63 63 63 63 64 66 67 68 69 69 69 68 68 67 68 68 69 70 71 71 71 72 72 72 71 71 71 70 70 70 69 69 68 68 68 68 68 69 70 70 71 72 73 73 74 75
58 58 58 59 59 60 60 59 59 59 59 59 60 60 61 61 61 61 61 62 64 65 66 67 68 68 68 68 68 68 68 69 69 69 68 67 66 66 66 66 66 65 66 66 66 67 67 68 69 70 71 70 69 69 71 72 73 73 73 73 74 74 73 73 73 73 73 73 73 73 73 72 72 71 71 71 71 71 72 72 73 74 75 75 77
60 61 61 61 61 61 61 60 60 61 61 61 61 61 62 62 62 63 63 63 64 65 66 66 66 67 67 68 69 71 72 73 73 72 71 69 67 66 67 67 67 67 68 68 68 67 66 66 67 68 70 70 70 70 72 73 75 75 76 76 76 75 75 75 75 74 74 75 76 76 76 76 76 76 75 74 74 74 74 74 74 75 76 77 78
60 61 61 61 62 62 61 61 61 62 62 62 62 62 62 62 63 63 63 64 65 66 67 68 68 69 70 72 73 74 75 75 75 73 72 70 69 68 67 67 68 69 69 70 70 70 68 67 66 66 66 66 67 69 71 73 74 75 76 77 78 78 78 76 75 75 75 75 77 78 78 78 79 80 79 78 78 78 77 77 77 76 77 78 79
60 61 62 62 62 62 61 61 62 62 63 63 62 62 62 62 62 62 63 63 64 65 66 67 69 70 71 73 74 74 75 75 74 73 73 72 71 70 69 69 69 70 71 72 73 72 72 71 69 67 66 64 65 68 70 72 73 73 75 76 77 79 79 77 76 76 75 75 76 77 79 80 80 82 82 82 81 81 81 81 80 80 80 80 80
61 62 63 63 63 62 61 60 61 62 63 63 62 62 61 61 61 62 62 63 63 64 65 66 68 69 71 72 73 73 74 74 74 74 74 74 73 72 72 72 71 71 72 73 74 75 75 75 74 72 69 68 69 69 69 69 70 72 73 75 77 78 77 77 76 76 76 76 76 77 78 80 81 82 83 84 84 84 84 84 84 84 84 83 83
62 64 64 64 63 63 61 61 62 63 63 63 62 62 61 62 62 62 62 63 64 65 66 67 68 69 71 72 73 74 74 75 75 75 75 76 76 75 75 75 74 74 74 75 76 77 77 78 78 76 74 73 74 73 72 71 70 71 73 75 78 78 78 78 78 78 78 77 77 77 78 80 81 82 84 85 85 85 85 86 87 87 87 86 87
62 64 65 64 64 63 62 63 63 63 63 62 62 62 62 62 63 63 64 64 65 66 67 68 69 70 71 73 74 75 75 75 76 77 78 78 78 78 78 78 78 78 77 77 78 78 79 80 80 80 78 78 78 77 76 75 73 73 74 76 78 79 79 80 80 80 81 81 80 80 80 82 83 84 85 85 86 86 86 87 88 89 89 88 89
61 63 64 64 63 63 62 63 63 63 63 63 64 64 64 64 65 66 66 67 68 68 69 69 70 71 72 73 75 76 77 77 77 78 79 80 80 81 81 81 80 80 80 80 80 81 81 81 82 82 82 81 81 81 81 80 79 78 78 78 80 80 80 81 81 82 83 83 84 84 83 84 85 86 86 87 87 87 87 87 89 90 90 90 91
61 62 63 63 63 63 63 64 64 65 65 66 66 66 67 67 68 68 69 70 70 71 71 71 71 72 73 74 76 76 77 78 78 79 80 80 81 82 82 82 82 82 82 82 82 83 83 83 83 83 84 84 83 83 84 84 83 83 84 84 85 85 85 84 84 84 84 84 85 85 84 84 85 86 87 88 89 89 89 89 89 90 90 91 92
64 64 64 64 64 65 66 66 67 67 68 69 69 69 70 70 71 71 72 73 73 72 71 71 71 72 73 75 76 77 77 77 78 79 80 81 81 82 83 83 83 83 83 83 83 84 84 85 85 85 85 85 85 85 85 86 86 87 88 89 89 89 90 89 89 88 88 88 88 87 86 85 85 85 86 88 89 90 91 91 91 91 91 92 92
68 68 67 66 66 67 68 69 70 70 71 72 72 73 73 73 74 74 74 75 74 73 72 72 72 73 74 75 77 77 77 77 77 78 78 79 80 81 82 83 83 83 83 84 84 84 84 84 85 85 85 85 86 86 87 88 89 90 90 91 91 91 91 92 91 91 91 91 91 91 91 90 89 88 87 87 88 88 89 90 91 91 92 93 93
71 71 70 70 70 70 71 72 73 73 74 75 75 76 76 76 76 76 76 76 75 74 73 73 73 74 75 76 76 76 76 76 76 76 77 77 78 79 81 82 82 82 83 83 83 83 83 83 84 85 85 85 86 87 88 89 90 90 90 91 91 91 91 91 91 91 91 91 91 92 93 93 92 92 91 90 89 89 89 89 89 89 90 91 92
73 74 74 74 74 74 74 75 76 77 77 78 77 78 78 78 77 77 77 76 76 75 75 75 75 75 75 75 75 75 75 74 74 75 75 76 76 77 78 79 80 81 81 82 81 81 81 82 82 83 84 84 85 86 87 88 89 89 89 89 90 90 90 89 89 89 89 90 90 90 91 91 92 92 92 92 91 90 90 89 89 89 88 88 89
76 76 77 78 78 78 77 78 78 78 79 79 78 78 78 78 78 78 78 77 77 76 76 76 75 75 75 75 75 74 73 73 73 73 73 73 74 74 75 76 77 78 78 78 78 79 79 80 81 81 82 82 83 84 84 85 85 86 86 87 87 87 87 87 87 87 87 87 87 88 88 89 90 90 91 91 90 90 90 90 89 89 88 87 86
78 78 79 80 80 80 79 79 79 79 80 79 78 77 77 77 77 78 78 78 78 77 76 76 75 75 75 74 73 72 71 71 71 71 71 71 71 72 72 72 72 73 73 74 75 76 76 77 78 79 80 81 81 81 81 82 82 83 83 84 84 84 83 83 83 83 83 83 84 84 85 85 86 87 87 88 89 89 89 88 88 87 86 85 84
79 79 80 81 81 81 80 79 79 79 79 78 77 75 75 75 76 77 78 78 77 77 76 75 75 74 73 72 70 70 69 69 69 69 69 69 69 69 69 68 68 68 69 69 70 70 70 72 73 75 75 76 76 77 77 78 78 79 79 80 80 80 79 79 78 78 78 79 79 80 80 81 81 82 83 84 85 85 85 85 84 83 83 82 81
81 81 81 82 83 82 81 81 80 79 77 75 74 73 74 75 76 77 77 76 75 75 74 74 74 72 71 69 69 68 67 66 65 65 65 65 66 66 65 64 64 65 65 65 65 65 66 67 68 68 68 69 70 70 71 72 72 73 73 73 74 74 73 73 73 73 73 73 73 74 74 75 76 77 78 79 79 80 79 79 78 78 78 77 77
82 81 81 82 83 83 82 81 80 77 74 73 73 74 75 75 75 74 73 73 72 71 71 72 71 69 68 67 66 65 64 63 62 61 61 62 62 62 62 61 61 62 62 62 63 64 64 63 63 63 63 64 64 65 65 66 66 66 67 67 67 66 66 66 66 66 66 67 67 68 69 70 71 72 73 73 73 73 73 72 71 71 71 71 71
82 80 80 80 81 81 81 79 77 74 72 71 72 72 71 71 70 70 69 69 68 67 67 68 68 67 65 64 62 61 61 60 59 59 59 60 60 60 60 60 60 60 60 61 61 61 60 60 60 60 60 60 60 60 61 61 61 61 61 61 60 60 60 60 60 61 62 63 64 65 66 67 67 67 67 66 66 67 66 66 65 65 65 65 65
77 77 76 76 76 77 77 75 73 70 69 68 68 67 67 66 66 66 66 65 64 64 65 66 65 63 62 61 59 59 58 57 57 57 57 58 58 59 59 59 59 59 59 58 58 58 57 57 58 57 57 57 57 57 57 57 56 56 55 55 55 54 55 55 56 57 58 60 61 62 62 61 61 61 60 60 60 61 61 60 59 59 59 60 60
71 71 71 70 71 71 71 70 69 67 65 64 63 63 63 64 63 63 62 61 60 61 63 63 62 59 58 57 56 56 56 56 55 55 56 56 57 57 57 57 57 57 57 56 56 56 55 55 55 55 54 54 54 53 52 52 51 51 50 50 50 50 50 51 52 54 55 57 57 57 57 56 56 56 55 55 55 55 56 56 56 55 56 56 57
66 66 66 66 65 66 66 66 65 63 62 61 60 61 61 61 61 61 60 59 58 59 61 61 58 56 55 55 54 54 55 55 54 54 55 54 54 54 54 55 55 55 55 55 54 54 53 53 53 52 52 51 50 49 48 47 46 46 46 46 47 47 47 48 50 51 52 52 53 53 52 52 51 51 51 51 51 51 52 52 52 52 52 53 53
63 63 63 63 63 62 62 61 61 61 60 59 60 60 60 59 58 58 58 57 56 57 58 57 55 53 54 54 53 53 53 53 52 52 52 52 52 53 53 53 53 53 54 53 52 52 52 51 51 50 49 48 47 45 45 44 44 44 44 44 45 45 46 46 47 47 48 49 49 49 49 48 48 48 47 47 47 48 48 48 48 49 49 49 49
59 60 60 61 61 60 58 57 58 58 58 58 58 59 58 57 56 56 56 55 55 55 55 54 53 52 53 53 52 52 52 51 51 50 50 51 51 51 51 51 51 51 51 50 50 50 50 49 48 47 47 46 45 44 43 43 43 43 43 43 44 45 45 45 45 45 46 46 46 46 46 45 45 44 44 43 43 44 44 45 45 45 45 45 45
55 56 57 58 58 57 55 54 54 54 55 55 56 56 56 55 55 54 53 53 54 53 52 52 52 52 51 50 50 50 50 50 50 49 49 49 49 49 49 49 49 48 48 49 49 49 48 47 47 46 46 45 44 43 42 42 42 42 42 42 43 43 43 42 42 43 43 43 43 43 43 42 42 41 41 40 40 40 41 40 40 40 40 40 40
50 51 53 54 55 54 52 50 50 51 52 52 53 53 53 54 54 53 52 51 50 49 49 51 52 51 49 48 48 48 49 48 48 47 47 47 47 47 47 47 46 46 47 47 47 47 46 46 46 46 45 44 43 42 42 42 41 41 40 40 40 40 40 39 39 39 40 40 40 39 39 39 38 37 37 37 36 35 34 34 34 34 34 34 35
47 48 49 50 51 50 49 48 49 49 49 49 50 51 52 53 53 52 50 48 47 47 48 49 49 49 48 47 46 46 46 46 46 46 46 46 46 46 46 45 45 46 45 45 45 45 45 46 45 45 44 44 42 41 41 40 39 38 38 37 37 37 37 36 36 36 36 36 36 35 34 34 34 33 33 32 31 30 29 29 30 30 30 31 31
45 46 46 47 47 47 46 47 47 47 47 48 49 50 50 51 51 50 48 47 46 47 47 46 46 47 46 45 44 44 45 45 45 45 45 46 45 45 45 44 44 43 43 43 43 44 44 44 44 44 44 43 41 40 40 39 37 36 35 34 34 34 33 33 33 32 32 31 31 31 30 30 30 29 28 27 27 27 27 27 28 28 28 29 29
42 43 43 44 44 44 45 45 46 46 46 47 48 48 48 48 49 48 47 47 46 46 44 44 44 44 44 44 43 43 43 44 45 45 45 44 44 44 43 43 42 42 42 42 43 43 43 43 43 43 42 41 39 39 38 36 34 33 33 31 31 30 30 29 29 28 28 27 27 27 27 27 27 26 25 25 25 25 26 26 26 26 26 26 27
38 39 40 40 41 42 43 44 44 45 46 46 46 46 47 48 48 47 46 46 45 44 43 42 42 43 43 43 43 43 43 44 44 44 43 43 42 42 42 41 41 41 41 41 41 41 41 41 41 41 40 38 37 37 35 33 31 30 29 28 27 27 26 26 25 25 25 24 24 24 25 25 24 24 24 24 24 24 24 24 24 24 23 23 24
34 35 36 37 38 39 40 42 43 43 44 45 46 46 46 47 46 45 44 43 43 42 42 41 42 42 43 42 42 42 43 43 43 42 42 41 41 41 41 40 40 40 40 39 39 39 39 39 39 38 37 35 35 34 32 29 28 27 26 25 24 24 23 23 23 22 22 21 21 22 23 22 21 21 22 22 22 21 21 21 21 21 21 20 20
30 31 32 33 35 36 37 39 40 41 42 44 44 45 45 45 44 43 43 43 43 42 41 41 41 42 42 42 42 42 42 42 41 41 40 40 40 40 39 39 38 38 37 37 37 37 37 37 36 35 33 33 32 31 28 26 25 24 23 22 22 22 22 21 20 20 19 19 19 20 19 19 19 19 20 20 20 20 19 19 19 19 18 18 18
26 27 29 30 32 33 34 35 37 38 39 40 41 42 43 43 43 43 43 42 42 41 41 40 41 41 40 40 40 40 40 40 39 39 39 39 39 38 37 36 36 36 35 35 35 34 34 33 32 31 30 30 30 28 24 22 22 21 21 21 21 20 19 18 17 17 18 18 18 17 16 16 17 19 20 20 19 19 18 18 17 17 16 16 16
22 23 25 26 28 30 31 33 34 36 37 39 40 41 41 41 41 40 40 40 40 40 40 39 39 39 38 39 39 38 38 37 37 38 38 37 36 35 34 34 33 33 33 33 32 31 31 30 29 29 28 28 27 25 22 20 20 20 20 20 19 18 16 15 15 16 17 17 16 16 16 16 17 18 19 19 19 18 18 17 17 17 16 15 15
19 20 21 22 24 26 28 30 31 33 35 36 37 37 37 37 37 38 39 39 39 38 37 37 37 37 36 36 36 36 36 36 36 36 35 34 33 32 32 32 31 31 31 30 29 28 28 28 27 26 25 25 24 22 20 19 19 19 18 17 17 16 15 14 14 15 16 16 16 16 16 16 17 18 18 19 19 18 18 17 16 16 15 14 13
16 17 18 19 21 22 24 26 28 30 31 33 33 34 35 36 37 38 37 37 36 35 35 35 35 35 35 35 35 34 35 35 34 34 33 32 32 31 31 30 30 30 29 28 27 26 26 26 25 24 24 23 23 21 20 19 19 18 16 16 16 15 14 13 13 15 16 16 16 16 16 16 17 17 18 18 18 17 16 15 14 14 13 13 12
15 15 16 16 17 19 21 23 25 27 29 30 32 33 34 35 35 35 34 33 33 33 33 33 33 33 33 33 33 33 33 33 32 31 31 31 31 30 30 30 29 28 27 26 25 25 25 25 24 23 23 22 22 21 20 19 18 17 16 15 15 15 14 13 14 16 16 16 16 15 15 16 16 16 16 16 16 15 14 14 13 13 13 12 12
14 14 15 15 15 16 17 19 21 23 25 27 29 30 31 32 32 31 31 30 31 31 32 32 32 32 32 32 31 31 31 30 30 30 30 30 30 29 29 28 27 26 26 25 25 24 24 23 23 22 21 21 21 21 20 18 18 17 16 15 15 15 15 15 15 16 17 16 16 15 15 16 16 15 14 14 14 14 14 13 13 13 12 12 12
13 14 14 15 16 16 17 17 18 20 21 23 25 27 28 28 28 28 29 29 30 31 31 31 31 31 31 30 29 29 28 28 28 29 29 29 29 29 28 27 26 25 25 25 24 24 23 22 22 21 21 21 21 20 20 19 18 17 16 16 16 17 17 16 16 17 17 17 16 15 15 15 15 14 13 13 13 13 13 13 13 12 12 12 12
12 13 14 15 16 17 17 18 18 19 20 21 22 23 24 25 25 27 28 29 29 30 29 29 29 29 29 28 27 27 27 27 27 28 28 28 28 28 27 26 25 24 24 24 24 23 22 22 21 20 20 20 20 20 20 19 18 17 17 17 18 18 19 18 17 18 18 18 17 16 16 16 15 14 13 13 13 12 12 12 12 12 12 12 13
10 11 12 14 15 16 17 18 19 20 20 20 20 20 20 21 22 25 26 27 27 27 27 27 27 27 27 26 25 25 26 26 27 27 28 28 27 26 25 25 24 24 24 24 23 23 22 21 21 20 20 20 20 20 20 20 19 18 18 19 19 20 20 19 19 18 19 18 17 16 16 16 16 14 14 13 13 12 12 12 11 11 11 12 12
Wind_Direction
252 250 250 252 254 256 256 257 258 259 261 266 271 273 274 273 270 269 269 269 271 271 271 270 270 271 271 271 270 269 266 265 263 262 261 260 259 258 258 258 258 258 258 258 259 259 259 259 258 258 259 259 260 260 258 256 254 252 251 250 249 248 246 246 246 244 243 243 243 244 245 246 246 246 244 243 242 242 243 244 245 245 246 247 248
254 252 251 252 253 254 256 258 258 260 263 268 271 272 273 273 272 270 268 267 268 269 269 269 269 270 272 272 272 272 269 267 265 264 263 262 261 259 258 258 258 258 258 258 258 258 258 258 258 257 257 257 257 258 258 258 256 255 253 252 251 250 249 248 247 245 244 244 243 242 243 244 246 247 247 246 245 244 244 244 245 245 246 246 246
256 254 253 255 255 254 256 257 258 261 265 267 268 269 270 271 270 270 269 267 266 267 267 268 268 269 270 272 273 273 270 268 266 265 264 263 263 261 260 260 259 258 258 258 257 258 258 258 258 257 256 256 256 256 257 257 257 257 255 254 253 253 252 251 249 247 245 245 244 243 242 242 243 245 247 248 248 248 247 247 247 247 247 247 247
254 251 249 251 253 254 256 258 259 262 264 264 265 267 268 268 267 267 267 267 266 264 265 266 267 268 269 270 272 271 269 267 266 265 264 263 263 262 262 261 261 260 260 259 258 258 257 257 257 257 257 257 256 255 255 256 257 257 257 256 255 254 253 252 252 250 248 247 246 246 245 243 242 242 243 245 247 248 249 249 249 249 249 249 249
247 245 245 247 251 255 258 260 262 262 262 262 263 263 263 264 265 265 265 266 267 266 265 265 266 267 268 270 270 268 268 267 266 265 264 264 264 264 263 263 262 261 261 261 260 259 258 257 256 256 256 256 256 255 255 255 255 256 256 256 255 255 255 254 253 252 250 249 248 248 248 246 245 244 244 244 245 246 248 249 250 250 251 251 252
248 248 249 251 255 258 260 261 261 261 261 261 261 260 260 262 263 263 263 263 265 266 266 266 267 267 268 268 268 268 268 266 264 264 264 265 265 264 264 263 263 262 261 262 261 259 258 258 257 256 255 255 255 255 255 254 254 255 255 255 255 255 255 255 254 253 252 251 250 249 249 248 248 247 247 247 247 247 247 247 248 249 250 251 252
254 254 255 257 257 255 253 256 258 259 260 260 260 259 259 259 260 261 261 259 259 262 265 266 268 269 269 269 269 270 269 263 262 264 264 264 264 264 263 263 262 262 261 261 262 260 259 258 258 258 257 256 256 255 255 255 254 254 254 255 255 255 255 255 254 254 254 253 252 250 249 249 249 249 248 248 249 249 249 248 248 248 249 250 251
258 258 258 258 256 251 250 255 258 260 260 259 258 258 259 259 258 259 258 256 254 257 261 265 268 270 271 271 271 270 266 261 262 267 267 264 262 263 264 263 262 262 261 261 261 259 258 258 259 260 259 258 257 256 255 255 254 254 253 253 254 254 255 255 255 255 254 254 253 253 251 250 249 249 249 249 249 250 251 251 250 249 249 250 251
260 260 259 258 256 254 255 257 258 259 259 258 257 257 258 259 258 257 255 254 254 255 258 262 264 266 268 270 271 270 266 263 266 270 271 268 264 263 264 264 263 262 261 261 260 259 259 259 260 260 259 259 258 258 257 256 255 254 253 253 252 252 253 253 254 254 255 255 254 254 253 252 251 250 250 250 250 250 250 251 252 252 251 250 250
261 259 258 257 257 257 257 257 257 257 257 257 256 256 256 257 257 257 255 255 256 257 258 260 261 263 265 267 268 268 267 267 268 271 272 271 268 266 266 266 264 262 260 260 259 259 259 259 259 259 258 258 258 259 258 257 256 255 254 253 252 252 251 252 252 253 253 254 254 254 254 254 253 252 252 251 250 250 250 251 252 253 253 253 252
260 258 257 257 256 257 257 257 256 255 255 255 254 254 255 255 255 256 255 255 256 257 258 259 261 262 263 264 266 266 267 268 270 271 271 270 268 268 268 267 266 264 262 261 260 259 259 259 259 259 258 257 257 257 258 258 258 257 255 254 253 252 252 252 251 251 251 252 253 253 254 254 254 253 253 252 252 251 251 251 251 252 253 253 254
259 258 257 257 257 256 256 256 256 256 255 254 253 253 253 253 254 254 254 255 255 256 256 257 258 259 260 261 263 264 266 268 269 270 269 268 267 266 267 267 267 267 265 264 263 262 260 259 259 259 258 257 257 256 257 257 257 257 257 256 255 254 253 253 252 252 251 252 252 252 252 253 254 253 253 253 253 253 252 252 252 252 252 253 254
259 258 257 257 256 256 256 255 256 256 256 255 254 253 252 252 253 253 254 254 255 256 256 257 258 259 260 261 263 264 265 267 267 268 267 267 266 265 265 265 266 267 267 267 267 265 264 262 260 260 259 258 256 255 255 256 256 257 257 257 256 255 255 254 254 253 252 252 253 253 253 253 253 254 253 252 253 253 253 253 253 253 253 253 253
259 259 258 257 257 256 255 254 254 254 254 255 255 255 254 253 253 253 254 254 255 256 256 257 258 260 261 262 263 264 264 265 265 265 266 265 265 265 265 264 264 265 266 267 267 267 267 266 264 263 261 260 258 256 254 255 255 256 256 256 256 255 255 254 254 253 253 253 254 254 254 254 253 254 254 253 253 253 253 253 253 253 253 254 254
258 258 258 258 258 257 256 255 253 253 252 253 254 255 256 257 257 256 256 256 256 256 257 257 258 259 260 261 262 263 263 263 264 264 265 265 265 264 264 264 263 263 263 264 265 266 267 267 267 266 265 264 262 259 257 256 255 255 255 255 255 254 254 253 253 253 253 254 254 255 255 255 254 254 255 255 254 253 253 253 253 253 253 253 254
257 257 257 257 257 257 257 256 254 254 253 254 254 255 256 258 259 259 259 259 259 259 259 259 259 259 260 261 261 262 262 263 263 263 263 264 264 263 263 263 263 262 262 262 263 264 265 266 266 266 266 266 265 264 262 260 258 256 255 255 255 255 254 253 252 252 252 253 254 254 255 256 255 255 255 255 255 254 254 254 254 254 254 254 254
257 258 258 257 257 257 256 256 256 257 257 258 258 258 259 259 258 258 258 259 259 259 260 260 260 261 261 261 262 262 262 262 262 263 263 263 263 263 263 262 262 262 262 261 261 262 263 264 265 266 267 266 267 267 266 265 262 260 259 259 259 258 257 255 254 253 253 253 254 255 255 256 256 256 255 256 256 256 255 255 255 255 255 255 255
257 258 259 259 259 259 259 259 260 261 261 261 261 260 260 260 259 259 259 259 259 260 260 260 260 261 261 262 262 262 262 262 262 262 262 263 263 263 262 262 262 262 262 261 261 261 261 262 263 265 265 266 267 267 268 268 267 266 265 265 264 264 262 261 259 258 256 255 255 255 256 255 255 256 256 256 256 257 256 256 256 256 256 256 256
258 258 258 258 259 260 260 261 262 262 262 262 262 262 262 262 262 262 262 262 262 261 261 261 261 262 262 262 262 262 263 263 262 262 262 262 262 262 262 262 262 262 262 262 262 262 262 261 262 262 263 264 265 265 266 267 267 267 267 267 266 266 266 265 264 263 262 261 259 258 257 256 255 255 255 256 256 256 256 256 256 256 257 257 257
259 259 258 258 258 259 260 261 261 262 263 263 264 264 265 265 266 266 266 265 265 265 264 264 265 264 264 264 264 263 263 263 263 263 263 262 262 262 262 262 262 262 262 262 262 262 262 262 262 262 262 263 263 264 264 264 264 264 265 265 265 265 266 266 265 265 265 265 264 263 262 260 258 257 256 256 256 256 256 256 256 256 256 256 257
261 261 261 260 260 260 261 261 262 262 263 264 265 265 265 266 266 267 267 267 267 268 268 268 268 267 267 266 266 265 265 265 264 264 264 263 263 263 263 263 262 262 262 262 262 262 262 263 263 263 264 264 264 264 264 264 264 263 264 264 264 264 265 265 265 265 265 265 265 265 265 264 264 262 261 259 258 258 257 257 256 256 255 255 256
262 262 262 262 261 261 261 261 262 263 263 264 264 265 266 266 267 267 268 268 269 270 270 270 270 269 269 268 268 267 267 266 266 265 265 264 263 263 263 263 262 262 262 262 262 262 262 263 263 263 264 264 264 264 264 264 264 264 265 265 265 265 265 265 266 266 265 265 265 264 264 265 265 265 264 264 263 262 261 260 259 258 257 256 255
262 262 262 262 262 261 261 261 261 262 263 263 264 265 266 267 268 268 269 269 270 271 271 271 271 271 271 270 269 269 268 267 267 266 265 264 263 263 262 262 262 262 262 262 263 263 263 263 263 263 263 264 263 263 263 264 264 265 265 266 266 266 266 266 266 266 266 266 266 266 266 266 265 266 266 266 265 265 265 264 263 262 260 259 257
262 262 263 263 263 262 262 262 262 262 263 264 264 265 266 267 268 269 270 271 271 272 272 272 272 272 271 271 270 269 269 269 268 267 266 265 264 264 263 263 262 263 263 263 264 264 264 264 264 264 264 264 264 264 265 265 266 266 266 267 267 267 267 267 267 267 267 267 267 267 267 267 267 267 267 267 267 267 267 267 266 266 265 263 261
264 264 263 264 264 263 263 263 263 263 263 264 265 266 267 268 269 270 271 272 273 273 273 272 271 271 270 269 269 269 269 269 268 268 267 267 266 266 265 265 264 264 264 264 264 264 264 264 264 265 265 265 266 266 267 267 267 267 267 267 267 267 267 267 267 267 268 267 267 267 267 267 267 267 267 267 268 268 268 268 268 268 267 267 266
265 265 265 265 265 265 265 265 265 265 265 265 266 267 268 269 270 271 271 272 272 272 272 271 271 270 270 270 270 269 268 267 267 267 267 267 267 267 267 267 267 267 266 266 266 265 265 264 264 264 265 265 266 266 267 267 267 267 267 267 268 268 268 269 269 268 268 268 268 268 268 268 268 268 268 267 267 267 268 268 268 268 269 268 268
267 266 266 267 267 267 267 267 266 266 266 267 268 269 269 269 269 268 268 269 269 270 270 270 270 270 270 270 270 269 268 268 267 267 268 268 268 268 268 268 268 268 268 268 268 267 266 266 265 266 266 266 267 267 267 267 267 267 267 268 268 269 269 269 269 270 270 269 269 269 269 268 268 268 267 267 267 267 268 268 269 269 269 270 269
268 267 267 267 267 267 268 267 267 267 268 268 268 268 267 267 266 266 267 267 268 268 269 269 269 269 269 269 269 269 269 269 269 269 269 269 269 269 269 269 269 269 270 270 269 269 269 268 268 268 268 268 268 268 268 268 269 269 269 269 270 270 271 271 271 271 271 270 269 269 268 267 267 267 267 268 269 269 270 270 271 270 270 270 270
267 267 266 266 267 267 267 267 268 268 267 267 266 266 266 266 266 266 267 267 267 267 267 267 267 267 267 267 268 268 269 269 269 269 269 269 270 270 270 271 271 271 271 271 270 271 271 271 271 270 270 270 270 270 270 270 270 271 271 271 272 272 272 272 271 271 270 269 268 268 267 267 268 269 270 271 272 272 272 272 272 271 271 271 270
266 266 266 266 265 266 266 267 267 267 266 266 266 266 266 266 265 265 265 265 265 266 265 265 265 265 266 267 267 268 268 268 268 268 269 269 270 270 271 272 272 272 272 271 272 272 272 272 272 271 271 271 271 271 271 272 272 273 273 273 273 273 272 271 270 269 268 268 268 268 269 270 272 273 273 273 273 273 273 273 273 273 272 271 271
265 265 265 265 264 264 265 265 265 265 265 265 265 264 263 263 263 263 263 263 263 263 263 263 263 264 265 266 267 267 268 268 268 268 268 269 269 270 270 271 271 272 272 272 273 273 273 273 273 273 273 273 273 273 274 274 275 275 275 274 273 272 271 271 269 268 268 269 270 271 272 273 274 274 274 274 274 274 274 274 274 273 273 272 272
265 264 264 263 263 262 262 263 263 264 264 263 262 261 260 260 260 261 261 260 260 260 261 262 264 265 266 266 266 266 266 267 267 267 268 268 269 269 269 270 270 271 272 272 272 273 273 274 274 274 275 275 275 276 276 276 276 275 275 274 273 272 271 270 269 269 270 271 272 273 274 275 275 275 275 275 274 273 273 273 273 273 272 273 273
262 262 262 261 261 260 259 260 261 261 260 260 259 258 258 258 258 258 259 259 259 260 261 262 263 264 265 265 265 265 266 266 267 267 267 268 268 267 268 269 269 270 270 272 272 273 274 274 275 275 276 276 277 277 277 276 276 276 275 275 274 273 271 270 271 271 272 273 274 275 276 276 276 275 274 274 273 273 273 273 273 273 272 272 273
259 259 259 259 259 259 258 258 258 258 258 258 258 258 258 257 257 257 258 258 259 259 261 262 263 263 263 264 265 265 266 266 266 266 266 266 266 267 267 268 268 269 270 271 272 272 273 274 275 276 277 277 277 277 277 277 277 277 276 275 275 274 274 274 274 274 274 275 275 276 276 276 275 275 275 275 275 274 274 273 273 273 273 274 274
257 257 257 258 258 258 258 258 257 257 257 257 257 258 258 258 257 257 256 257 258 259 261 262 263 262 262 263 263 264 264 264 265 265 265 265 266 266 267 267 267 268 269 270 270 272 273 274 275 276 276 277 277 278 278 278 277 276 276 275 275 275 275 275 275 275 276 276 276 276 276 276 276 277 276 276 275 274 274 274 275 275 275 275 274
256 256 256 257 258 258 258 258 257 256 256 256 256 257 257 257 257 256 255 255 256 258 259 259 260 261 262 262 261 261 262 263 264 264 264 264 264 265 265 265 266 267 267 268 270 272 274 274 275 276 276 277 278 278 278 278 277 276 276 276 276 276 276 276 276 276 276 276 276 276 276 277 277 276 276 275 275 276 277 278 277 276 275 275 274
256 255 254 255 256 257 257 256 256 255 255 254 254 254 254 254 255 255 255 256 256 256 255 256 258 260 260 260 260 260 261 261 262 262 262 262 262 262 263 264 265 266 267 269 271 272 272 273 275 276 277 278 278 279 279 279 279 278 278 277 278 277 277 276 276 275 274 275 275 275 276 275 275 276 276 277 279 280 279 278 277 276 275 274 273
254 253 252 252 252 253 253 253 253 253 252 252 252 252 252 253 255 256 256 256 255 255 255 256 257 258 260 260 260 260 259 259 259 260 260 260 261 262 263 264 265 267 268 269 270 270 271 273 274 276 277 278 279 280 280 280 280 279 279 278 278 277 276 275 274 273 273 273 274 274 275 275 275 276 277 279 279 278 277 276 275 275 275 274 274
254 252 251 250 249 249 249 249 249 250 250 250 250 251 252 253 253 254 254 254 254 254 255 255 256 257 259 259 259 259 259 258 258 258 259 260 261 263 264 265 266 267 267 268 268 270 271 272 274 275 276 278 279 279 279 279 280 279 278 277 276 274 273 272 272 271 271 271 272 272 273 273 274 275 276 275 274 273 272 272 272 272 272 272 273
254 252 251 249 248 246 246 245 246 246 247 248 249 249 250 251 251 252 253 253 254 255 255 255 255 256 256 257 257 258 258 257 258 259 260 262 262 263 264 265 265 266 266 267 268 269 270 271 272 274 275 277 277 277 278 279 278 277 276 274 273 271 270 269 269 269 269 269 268 268 268 269 271 272 271 270 268 268 268 269 270 270 270 270 271
252 250 249 247 246 244 243 243 243 243 244 245 246 247 248 250 251 252 253 254 255 255 254 254 254 254 255 255 256 256 257 257 259 260 261 262 262 263 263 264 264 265 265 266 267 267 268 270 271 273 274 275 275 275 276 276 275 274 272 270 268 266 265 265 265 265 265 264 263 263 265 267 269 269 269 269 269 269 270 271 272 273 273 272 271
250 247 245 244 243 242 242 241 241 241 241 243 244 246 247 249 251 252 252 252 252 252 253 253 253 253 253 254 254 255 256 258 259 260 261 261 261 261 262 262 262 263 263 264 264 265 267 268 270 271 273 273 273 272 273 272 270 268 266 264 262 261 261 261 262 263 262 261 261 262 265 269 271 272 273 274 275 275 276 277 278 278 277 276 274
247 245 243 241 240 239 239 238 238 239 239 240 242 243 244 245 246 248 249 249 250 251 251 251 251 252 252 253 254 255 256 257 258 258 258 258 259 259 259 259 259 260 260 260 261 263 264 266 268 269 269 269 269 269 269 266 264 262 259 258 257 257 257 259 261 263 264 263 264 266 270 274 277 278 279 280 282 284 286 286 287 286 285 283 280
244 242 240 238 237 235 235 234 234 234 235 236 237 239 241 243 244 246 247 248 248 248 248 249 249 250 251 251 252 253 254 254 255 255 255 256 256 256 256 256 255 255 255 256 258 260 261 263 265 265 265 265 265 265 263 260 257 254 253 252 253 253 254 257 262 265 267 269 270 273 276 279 281 282 284 286 288 290 292 292 292 290 288 285 282
243 241 238 235 233 232 232 232 232 232 233 234 236 238 239 240 241 242 243 243 245 246 246 247 248 248 249 249 250 251 251 251 251 252 252 253 252 252 251 251 251 251 252 253 254 256 258 259 260 260 260 260 260 260 258 254 249 246 245 248 250 251 252 254 259 264 268 271 274 277 280 281 282 285 287 290 291 294 295 295 294 293 290 287 282
238 236 234 232 230 228 227 228 229 230 231 232 233 234 235 236 236 238 240 241 243 244 245 245 246 246 247 248 248 248 248 249 249 249 249 248 247 246 246 245 246 247 248 249 250 251 253 254 255 255 255 255 256 255 252 247 242 239 239 242 247 249 250 252 257 263 267 271 273 276 278 279 281 285 289 292 295 297 298 298 297 297 295 290 285
234 230 227 227 226 226 225 225 225 226 227 228 229 231 232 234 236 238 240 241 242 243 244 245 245 246 246 246 246 246 246 246 246 245 244 242 241 240 240 241 242 243 244 245 245 246 248 249 251 251 251 252 252 250 246 240 235 233 234 238 244 248 250 253 258 262 265 267 269 271 273 276 280 285 290 293 296 299 299 299 299 299 296 291 285
238 233 227 223 220 221 223 224 225 226 227 228 230 231 233 235 237 238 239 240 241 242 242 243 243 243 243 243 243 243 243 242 241 240 238 236 236 236 236 237 238 238 239 240 241 242 244 246 248 247 247 248 248 246 242 236 232 230 230 234 242 248 251 253 256 260 262 263 264 266 269 273 277 282 286 291 295 298 299 298 299 298 295 291 286
238 236 231 226 220 217 216 218 221 224 226 228 230 231 233 235 236 237 237 237 238 239 240 240 241 241 241 241 240 239 238 236 235 233 232 231 231 232 233 234 235 236 237 238 239 241 242 243 244 243 244 245 246 245 241 235 231 228 228 231 239 246 249 250 253 256 258 260 262 263 266 269 272 275 280 285 291 295 297 297 297 296 295 292 288
234 231 229 226 223 220 217 215 215 218 221 225 228 232 235 237 237 237 237 237 237 238 239 239 239 239 238 237 235 233 231 230 229 228 228 228 229 230 231 232 233 235 237 238 240 241 241 241 241 241 242 243 244 244 242 237 231 228 228 230 235 242 246 248 249 252 254 257 260 261 263 264 265 267 273 279 285 290 294 296 297 295 293 290 287
235 232 229 226 223 221 218 216 216 216 218 219 221 224 228 232 234 235 236 237 237 238 237 235 234 234 234 231 228 226 225 225 225 225 226 226 227 228 229 231 233 235 237 239 240 241 241 240 240 241 242 243 244 244 244 241 235 231 230 230 234 239 243 246 247 249 252 254 257 259 261 261 260 259 264 272 279 285 290 293 295 295 291 287 283
Height
10545 10544 10543 10542 10541 10541 10543 10542 10540 10540 10541 10538 10533 10532 10534 10535 10536 10537 10538 10539 10539 10540 10541 10543 10545 10546 10549 10550 10552 10553 10554 10555 10555 10555 10556 10556 10557 10557 10558 10559 10560 10561 10562 10563 10564 10565 10566 10567 10568 10569 10569 10570 10570 10570 10571 10571 10572 10573 10574 10575 10577 10578 10580 10582 10584 10585 10587 10588 10590 10591 10593 10594 10595 10596 10598 10600 10602 10603 10604 10605 10606 10607 10608 10609 10610
10536 10536 10535 10535 10535 10536 10536 10535 10533 10533 10534 10532 10528 10527 10527 10527 10527 10528 10530 10533 10533 10533 10534 10536 10538 10540 10542 10544 10545 10547 10548 10549 10549 10550 10550 10550 10550 10551 10551 10552 10553 10555 10556 10557 10559 10559 10560 10561 10561 10562 10563 10564 10564 10565 10565 10565 10566 10567 10567 10569 10570 10571 10573 10574 10576 10578 10580 10581 10583 10584 10586 10588 10589 10590 10591 10592 10594 10595 10597 10598 10599 10600 10601 10601 10603
10529 10528 10528 10527 10528 10529 10529 10528 10528 10528 10528 10527 10525 10523 10522 10520 10519 10518 10521 10525 10526 10526 10527 10528 10531 10533 10535 10537 10539 10540 10541 10542 10542 10543 10543 10542 10542 10543 10545 10546 10547 10549 10550 10551 10553 10553 10554 10555 10555 10556 10557 10557 10558 10559 10559 10560 10560 10561 10562 10562 10564 10565 10566 10567 10569 10571 10572 10574 10576 10577 10579 10581 10583 10584 10585 10585 10586 10587 10589 10590 10591 10592 10593 10595 10596
10523 10521 10520 10519 10520 10521 10521 10521 10522 10523 10523 10522 10522 10521 10518 10513 10512 10512 10512 10515 10517 10519 10521 10523 10524 10526 10528 10530 10532 10533 10534 10534 10534 10534 10534 10533 10534 10536 10538 10540 10541 10542 10544 10545 10546 10546 10547 10548 10549 10550 10550 10551 10552 10553 10553 10554 10555 10555 10556 10556 10557 10558 10559 10560 10562 10563 10565 10567 10568 10570 10571 10573 10575 10577 10577 10578 10579 10580 10581 10582 10584 10585 10586 10588 10590
10515 10513 10512 10512 10513 10515 10515 10514 10514 10515 10516 10516 10517 10517 10512 10507 10506 10507 10507 10507 10507 10509 10514 10517 10518 10519 10521 10523 10525 10527 10527 10526 10526 10525 10525 10525 10527 10529 10531 10533 10534 10536 10537 10537 10538 10539 10539 10540 10541 10543 10543 10544 10544 10546 10547 10547 10548 10549 10549 10550 10551 10551 10552 10553 10554 10556 10558 10559 10561 10562 10563 10565 10567 10569 10570 10570 10571 10573 10573 10574 10576 10577 10578 10580 10582
10506 10505 10506 10507 10509 10512 10511 10507 10505 10506 10508 10509 10510 10509 10505 10502 10502 10502 10503 10503 10500 10500 10504 10508 10511 10512 10514 10516 10518 10520 10521 10519 10518 10517 10517 10518 10520 10521 10523 10524 10525 10527 10529 10529 10529 10531 10532 10532 10533 10534 10536 10536 10537 10538 10539 10540 10541 10542 10542 10543 10544 10544 10545 10546 10547 10548 10549 10551 10553 10554 10555 10557 10559 10561 10562 10562 10563 10564 10564 10564 10566 10568 10570 10572 10573
10498 10498 10499 10501 10506 10509 10505 10498 10497 10499 10500 10502 10501 10499 10498 10499 10498 10497 10499 10500 10497 10493 10495 10498 10501 10503 10505 10507 10510 10513 10513 10511 10511 10510 10511 10512 10512 10512 10514 10515 10516 10518 10519 10520 10520 10521 10524 10525 10525 10526 10528 10529 10530 10531 10532 10533 10533 10534 10535 10536 10537 10537 10538 10538 10539 10540 10541 10542 10544 10545 10547 10549 10550 10552 10553 10554 10555 10556 10556 10556 10557 10559 10561 10562 10564
10490 10490 10492 10494 10498 10499 10495 10492 10492 10493 10494 10494 10493 10491 10491 10493 10494 10494 10497 10496 10491 10488 10488 10491 10493 10493 10494 10497 10501 10504 10504 10503 10503 10503 10504 10505 10506 10505 10505 10506 10508 10509 10510 10510 10510 10511 10513 10515 10516 10517 10519 10520 10521 10522 10523 10524 10525 10525 10526 10527 10528 10529 10530 10530 10531 10532 10533 10534 10535 10536 10538 10540 10542 10543 10544 10546 10547 10547 10548 10548 10549 10550 10552 10552 10553
10482 10483 10484 10485 10487 10487 10486 10486 10486 10487 10487 10487 10486 10485 10485 10486 10486 10490 10493 10490 10485 10483 10484 10486 10487 10487 10486 10488 10491 10494 10495 10495 10495 10495 10495 10496 10498 10498 10498 10498 10499 10500 10501 10500 10500 10501 10503 10505 10506 10507 10508 10510 10512 10513 10514 10514 10515 10516 10517 10518 10518 10519 10520 10522 10523 10524 10525 10525 10526 10527 10528 10530 10532 10533 10534 10537 10538 10539 10540 10540 10540 10541 10543 10544 10544
10474 10474 10475 10475 10476 10477 10477 10478 10479 10479 10479 10479 10479 10478 10478 10478 10479 10481 10484 10482 10479 10479 10480 10480 10481 10481 10481 10482 10483 10484 10485 10485 10486 10486 10486 10487 10487 10488 10489 10489 10489 10490 10491 10491 10491 10492 10493 10494 10495 10496 10497 10499 10502 10503 10504 10504 10504 10505 10506 10507 10508 10509 10510 10512 10514 10515 10516 10517 10517 10518 10519 10520 10522 10523 10524 10526 10529 10529 10530 10532 10532 10531 10533 10534 10534
10465 10465 10466 10467 10467 10467 10468 10469 10470 10470 10471 10471 10472 10472 10471 10471 10472 10473 10474 10474 10473 10473 10473 10473 10474 10474 10475 10475 10475 10476 10476 10476 10477 10477 10478 10478 10478 10478 10478 10478 10479 10479 10480 10481 10482 10482 10484 10485 10485 10486 10487 10490 10492 10493 10493 10493 10493 10494 10496 10496 10497 10499 10501 10502 10504 10505 10507 10508 10508 10508 10509 10510 10510 10513 10515 10516 10518 10519 10520 10522 10523 10523 10524 10524 10522
10456 10456 10458 10458 10458 10458 10459 10460 10460 10461 10461 10463 10464 10464 10464 10464 10464 10465 10466 10466 10466 10466 10466 10466 10467 10468 10468 10468 10468 10468 10468 10468 10468 10468 10468 10469 10470 10470 10469 10468 10468 10468 10469 10471 10471 10472 10474 10475 10476 10477 10478 10480 10483 10483 10482 10481 10482 10483 10485 10486 10487 10488 10489 10491 10493 10496 10497 10497 10497 10498 10499 10500 10500 10501 10504 10506 10507 10508 10510 10511 10513 10514 10514 10515 10513
10447 10447 10449 10450 10449 10449 10451 10452 10451 10451 10452 10453 10454 10456 10457 10457 10457 10457 10458 10459 10459 10459 10459 10459 10460 10460 10460 10460 10460 10460 10460 10460 10460 10459 10459 10459 10460 10461 10461 10460 10459 10459 10459 10460 10460 10461 10463 10464 10466 10467 10469 10471 10473 10472 10470 10469 10471 10473 10474 10475 10476 10477 10478 10480 10483 10485 10486 10486 10486 10486 10488 10490 10490 10489 10492 10496 10496 10497 10499 10500 10502 10504 10504 10504 10505
10438 10438 10439 10440 10440 10441 10442 10443 10443 10442 10442 10443 10445 10446 10448 10449 10449 10450 10451 10452 10452 10452 10452 10452 10452 10452 10452 10451 10451 10451 10451 10451 10451 10450 10449 10450 10451 10451 10451 10451 10451 10451 10450 10449 10449 10450 10451 10452 10454 10456 10458 10460 10461 10460 10459 10459 10461 10463 10464 10465 10465 10465 10467 10469 10472 10474 10474 10475 10476 10476 10476 10478 10479 10478 10479 10482 10485 10486 10487 10489 10490 10493 10493 10494 10495
10429 10429 10429 10430 10430 10431 10434 10435 10434 10434 10434 10435 10436 10438 10439 10439 10441 10442 10443 10444 10444 10444 10445 10445 10444 10443 10442 10442 10441 10441 10441 10441 10441 10442 10441 10441 10441 10442 10441 10442 10443 10443 10441 10440 10440 10440 10440 10440 10442 10444 10446 10448 10447 10447 10448 10450 10452 10453 10454 10454 10453 10454 10456 10458 10460 10461 10462 10464 10465 10465 10464 10465 10467 10468 10467 10468 10472 10474 10476 10478 10478 10479 10482 10484 10485
10419 10419 10419 10420 10421 10423 10425 10425 10425 10425 10425 10427 10429 10430 10431 10431 10432 10433 10434 10435 10435 10436 10436 10436 10435 10434 10433 10432 10431 10430 10430 10431 10431 10432 10431 10431 10431 10431 10431 10432 10433 10433 10432 10431 10431 10430 10431 10431 10430 10432 10434 10435 10434 10435 10437 10440 10442 10443 10442 10442 10442 10442 10444 10446 10447 10449 10450 10452 10453 10454 10454 10453 10454 10455 10456 10456 10458 10461 10463 10466 10466 10466 10470 10473 10473
10410 10409 10409 10411 10412 10414 10415 10416 10416 10417 10418 10419 10420 10421 10422 10423 10424 10424 10425 10426 10426 10427 10427 10427 10426 10425 10424 10422 10421 10420 10420 10421 10422 10421 10420 10420 10420 10420 10421 10422 10422 10422 10423 10423 10422 10421 10421 10421 10421 10422 10424 10424 10424 10425 10426 10428 10430 10431 10431 10431 10431 10431 10432 10433 10435 10437 10438 10440 10442 10442 10443 10442 10442 10443 10444 10444 10445 10447 10450 10453 10452 10453 10457 10460 10461
10401 10401 10401 10402 10403 10405 10407 10408 10408 10409 10409 10410 10410 10411 10412 10412 10413 10415 10416 10416 10417 10417 10418 10418 10417 10416 10414 10412 10411 10409 10409 10410 10411 10411 10410 10409 10409 10409 10409 10410 10411 10412 10412 10413 10413 10412 10412 10412 10413 10413 10413 10414 10415 10415 10416 10416 10418 10419 10420 10419 10418 10418 10418 10420 10422 10423 10425 10427 10429 10430 10431 10431 10431 10431 10431 10433 10433 10434 10437 10440 10439 10440 10444 10446 10448
10391 10391 10392 10394 10394 10395 10397 10398 10398 10398 10398 10398 10399 10401 10401 10401 10402 10404 10404 10405 10405 10406 10407 10408 10407 10406 10404 10402 10400 10399 10399 10399 10399 10399 10399 10398 10398 10397 10398 10398 10399 10401 10402 10402 10403 10402 10401 10402 10402 10403 10403 10404 10405 10405 10406 10406 10407 10408 10407 10406 10405 10404 10405 10407 10409 10410 10411 10413 10414 10416 10417 10417 10418 10419 10419 10420 10421 10421 10423 10426 10427 10428 10430 10432 10434
10380 10380 10382 10385 10386 10386 10386 10387 10388 10387 10387 10387 10388 10389 10390 10390 10390 10391 10391 10392 10392 10394 10396 10397 10396 10395 10393 10391 10389 10388 10388 10389 10388 10388 10388 10387 10387 10386 10386 10387 10389 10389 10390 10391 10390 10390 10390 10390 10391 10392 10392 10393 10394 10395 10395 10395 10395 10394 10393 10393 10393 10393 10393 10394 10396 10397 10398 10399 10400 10401 10402 10402 10403 10405 10405 10406 10407 10407 10409 10410 10412 10414 10417 10418 10419
10369 10370 10372 10374 10376 10377 10377 10377 10377 10377 10377 10377 10377 10378 10378 10379 10379 10379 10379 10379 10380 10382 10384 10385 10384 10382 10380 10379 10377 10377 10377 10378 10377 10377 10376 10376 10376 10375 10375 10376 10377 10378 10378 10378 10378 10378 10380 10380 10380 10380 10381 10382 10383 10383 10382 10381 10380 10380 10380 10380 10381 10382 10382 10382 10383 10384 10386 10386 10387 10387 10387 10387 10388 10389 10390 10392 10392 10393 10394 10395 10396 10399 10402 10404 10405
10359 10359 10361 10362 10364 10365 10366 10365 10365 10366 10366 10366 10366 10366 10366 10367 10367 10367 10367 10367 10368 10370 10372 10372 10371 10369 10368 10367 10366 10366 10366 10366 10366 10365 10365 10365 10364 10364 10363 10363 10364 10365 10365 10365 10366 10368 10370 10370 10370 10370 10370 10371 10371 10370 10368 10367 10366 10366 10367 10368 10368 10369 10369 10370 10370 10371 10372 10372 10373 10373 10372 10373 10374 10374 10375 10376 10377 10378 10378 10379 10380 10382 10384 10387 10389
10349 10349 10349 10349 10350 10352 10353 10353 10353 10354 10354 10355 10356 10355 10355 10354 10354 10354 10355 10356 10357 10358 10359 10359 10358 10356 10355 10355 10354 10354 10354 10354 10354 10353 10353 10352 10352 10352 10351 10351 10352 10352 10353 10354 10356 10358 10359 10359 10358 10358 10358 10358 10357 10356 10355 10354 10354 10355 10355 10355 10355 10355 10356 10357 10357 10358 10358 10358 10358 10358 10358 10359 10359 10359 10359 10360 10361 10362 10363 10363 10363 10364 10366 10369 10372
10337 10337 10337 10336 10336 10338 10339 10340 10341 10342 10342 10343 10344 10345 10344 10343 10342 10342 10343 10343 10345 10346 10346 10346 10345 10344 10343 10342 10342 10342 10342 10343 10342 10341 10341 10340 10340 10340 10340 10340 10340 10341 10342 10345 10346 10347 10346 10346 10346 10346 10346 10345 10344 10343 10343 10344 10344 10344 10344 10343 10342 10342 10343 10344 10344 10344 10344 10344 10344 10345 10345 10344 10344 10345 10345 10345 10346 10347 10347 10347 10347 10347 10349 10351 10354
10323 10324 10323 10323 10322 10323 10325 10327 10328 10329 10329 10330 10332 10333 10334 10334 10333 10332 10331 10331 10333 10333 10334 10333 10332 10332 10331 10331 10331 10332 10332 10331 10331 10330 10330 10329 10329 10329 10329 10329 10330 10331 10333 10334 10335 10335 10336 10336 10335 10334 10333 10333 10332 10333 10333 10333 10333 10332 10331 10330 10329 10329 10330 10331 10331 10331 10332 10332 10332 10332 10331 10331 10331 10331 10331 10331 10331 10332 10332 10332 10333 10333 10334 10336 10338
10309 10310 10310 10309 10308 10309 10311 10313 10314 10315 10317 10319 10321 10323 10324 10323 10323 10321 10320 10320 10321 10321 10320 10320 10319 10319 10319 10320 10321 10321 10321 10321 10321 10321 10320 10320 10319 10318 10318 10320 10321 10322 10322 10322 10323 10325 10325 10325 10324 10323 10323 10323 10323 10323 10322 10322 10321 10320 10319 10318 10318 10318 10318 10319 10319 10320 10320 10320 10320 10319 10319 10318 10318 10318 10317 10317 10317 10317 10317 10318 10319 10320 10320 10322 10324
10294 10295 10296 10295 10295 10295 10297 10298 10299 10301 10304 10307 10310 10311 10311 10310 10309 10309 10308 10309 10309 10310 10309 10308 10307 10307 10308 10309 10309 10309 10310 10310 10311 10311 10311 10311 10310 10309 10310 10311 10312 10311 10311 10312 10313 10313 10312 10312 10313 10313 10314 10314 10313 10312 10311 10311 10310 10309 10308 10308 10308 10308 10308 10309 10309 10309 10309 10309 10308 10308 10306 10306 10305 10304 10303 10303 10303 10303 10304 10306 10308 10308 10308 10309 10311
10277 10280 10282 10282 10281 10281 10282 10284 10285 10288 10292 10295 10296 10297 10296 10296 10296 10297 10297 10298 10299 10299 10299 10297 10296 10297 10298 10298 10298 10299 10299 10300 10301 10302 10302 10301 10301 10300 10301 10301 10302 10302 10302 10303 10302 10301 10301 10302 10303 10304 10304 10303 10303 10302 10301 10300 10300 10299 10299 10299 10299 10299 10299 10299 10299 10298 10298 10297 10296 10295 10294 10293 10292 10292 10291 10292 10292 10292 10293 10295 10297 10297 10297 10297 10299
10263 10265 10267 10269 10269 10268 10269 10270 10273 10276 10279 10282 10282 10283 10283 10284 10285 10286 10287 10287 10288 10289 10289 10287 10285 10286 10288 10289 10289 10290 10290 10291 10292 10293 10293 10292 10292 10292 10292 10292 10293 10293 10293 10292 10292 10292 10293 10293 10294 10294 10293 10293 10293 10292 10291 10291 10290 10290 10290 10290 10290 10290 10290 10289 10288 10287 10286 10285 10284 10283 10282 10282 10282 10282 10283 10283 10283 10283 10283 10284 10285 10286 10286 10286 10287
10250 10252 10254 10256 10257 10256 10257 10259 10261 10264 10266 10269 10270 10271 10272 10273 10274 10274 10275 10276 10278 10278 10278 10276 10276 10277 10279 10280 10281 10281 10281 10283 10284 10284 10284 10284 10283 10283 10284 10284 10284 10283 10283 10283 10284 10284 10285 10284 10284 10284 10284 10284 10283 10283 10283 10282 10282 10282 10282 10281 10281 10281 10280 10279 10278 10277 10275 10274 10274 10274 10274 10274 10275 10275 10275 10275 10274 10273 10272 10273 10274 10275 10275 10275 10274
10239 10240 10242 10243 10245 10246 10246 10248 10250 10252 10255 10257 10259 10260 10260 10261 10262 10263 10264 10266 10267 10268 10266 10266 10267 10270 10271 10272 10273 10274 10273 10274 10275 10276 10276 10276 10276 10276 10276 10276 10276 10275 10275 10275 10276 10276 10276 10275 10275 10275 10275 10274 10274 10274 10274 10274 10274 10273 10273 10272 10271 10271 10270 10269 10268 10268 10267 10266 10266 10267 10267 10268 10268 10267 10266 10266 10266 10265 10264 10264 10265 10265 10265 10264 10264
10227 10229 10230 10232 10233 10235 10236 10237 10239 10241 10244 10246 10247 10248 10248 10250 10252 10252 10253 10256 10258 10258 10257 10258 10260 10262 10263 10264 10266 10266 10265 10266 10267 10268 10268 10268 10269 10269 10268 10268 10268 10268 10267 10268 10268 10268 10268 10268 10267 10267 10266 10266 10266 10267 10266 10266 10266 10265 10265 10264 10263 10263 10262 10262 10261 10260 10261 10261 10260 10260 10260 10260 10260 10259 10259 10258 10258 10257 10256 10256 10256 10257 10256 10256 10256
10216 10217 10218 10220 10221 10223 10226 10228 10229 10231 10233 10234 10235 10236 10238 10240 10242 10243 10244 10246 10248 10249 10249 10251 10253 10255 10255 10255 10257 10258 10258 10258 10259 10260 10261 10261 10261 10261 10261 10261 10261 10261 10260 10261 10261 10261 10261 10260 10260 10259 10259 10259 10259 10259 10259 10259 10258 10258 10257 10256 10255 10255 10255 10255 10255 10255 10255 10255 10254 10254 10253 10253 10252 10252 10251 10251 10250 10249 10249 10249 10249 10249 10248 10248 10248
10206 10206 10207 10208 10210 10212 10216 10219 10220 10221 10223 10224 10225 10226 10228 10230 10233 10235 10237 10238 10239 10240 10242 10244 10246 10247 10247 10248 10249 10250 10251 10251 10252 10253 10253 10253 10253 10254 10254 10254 10254 10254 10255 10255 10255 10254 10254 10254 10253 10253 10253 10252 10252 10252 10252 10252 10252 10251 10250 10250 10249 10248 10248 10249 10249 10248 10248 10248 10248 10247 10246 10245 10245 10244 10244 10244 10244 10243 10242 10242 10242 10242 10242 10242 10242
10196 10197 10197 10199 10200 10203 10206 10210 10211 10213 10214 10215 10215 10217 10219 10220 10223 10226 10228 10230 10231 10233 10235 10237 10237 10238 10240 10241 10242 10242 10243 10243 10244 10245 10246 10246 10246 10247 10247 10247 10248 10248 10249 10248 10248 10248 10247 10247 10247 10247 10247 10246 10246 10246 10246 10246 10245 10245 10244 10243 10243 10243 10243 10243 10243 10242 10241 10241 10241 10240 10239 10238 10239 10238 10238 10238 10237 10236 10236 10236 10236 10236 10236 10235 10235
10188 10189 10189 10190 10192 10194 10198 10201 10203 10204 10205 10206 10207 10209 10210 10211 10213 10216 10218 10221 10224 10227 10228 10228 10228 10230 10232 10234 10235 10235 10236 10237 10238 10238 10239 10239 10240 10240 10240 10241 10242 10242 10242 10242 10242 10242 10242 10241 10241 10241 10240 10240 10240 10240 10240 10239 10239 10238 10238 10238 10237 10237 10237 10237 10237 10236 10235 10234 10234 10234 10234 10233 10233 10232 10232 10231 10231 10231 10231 10231 10231 10231 10230 10230 10230
10179 10180 10181 10182 10184 10187 10190 10193 10194 10195 10197 10198 10199 10200 10201 10202 10204 10206 10210 10214 10217 10218 10219 10220 10221 10223 10225 10226 10228 10229 10230 10230 10231 10232 10232 10233 10233 10234 10234 10235 10236 10236 10236 10236 10237 10237 10236 10235 10235 10235 10234 10234 10234 10234 10234 10233 10233 10233 10232 10232 10232 10231 10231 10231 10231 10230 10230 10229 10229 10228 10228 10227 10227 10227 10226 10227 10227 10227 10227 10226 10226 10225 10225 10225 10225
10170 10172 10173 10175 10177 10179 10182 10184 10185 10187 10188 10189 10189 10191 10193 10195 10197 10200 10204 10207 10208 10209 10211 10214 10215 10216 10218 10219 10221 10222 10222 10223 10224 10225 10225 10226 10227 10228 10229 10229 10230 10230 10231 10231 10231 10230 10230 10230 10229 10229 10228 10228 10228 10228 10228 10227 10227 10227 10227 10227 10227 10226 10226 10226 10225 10224 10224 10224 10224 10223 10223 10222 10222 10222 10223 10223 10223 10223 10222 10222 10222 10221 10221 10221 10220
10162 10164 10166 10168 10170 10172 10174 10176 10178 10179 10180 10181 10182 10184 10187 10189 10191 10194 10197 10198 10200 10202 10205 10207 10208 10210 10211 10212 10213 10214 10215 10216 10217 10217 10218 10220 10221 10222 10223 10224 10224 10225 10225 10225 10225 10225 10225 10224 10224 10223 10223 10223 10223 10223 10222 10222 10222 10222 10222 10222 10222 10221 10221 10221 10220 10220 10220 10220 10220 10219 10219 10219 10219 10219 10220 10220 10220 10219 10219 10219 10218 10218 10218 10217 10217
10155 10157 10159 10161 10162 10164 10166 10168 10170 10172 10173 10174 10176 10178 10180 10182 10184 10187 10190 10192 10194 10197 10199 10201 10202 10203 10204 10205 10206 10208 10208 10209 10210 10211 10213 10215 10216 10216 10217 10218 10218 10218 10219 10219 10219 10219 10219 10219 10218 10218 10218 10218 10218 10218 10218 10218 10218 10218 10218 10218 10217 10217 10216 10216 10216 10216 10217 10217 10217 10216 10216 10216 10216 10216 10216 10216 10216 10216 10216 10215 10215 10215 10214 10214 10214
10148 10150 10152 10154 10155 10157 10159 10161 10163 10165 10167 10168 10170 10172 10174 10176 10179 10182 10184 10186 10188 10191 10193 10194 10196 10197 10198 10199 10201 10202 10202 10203 10205 10206 10208 10209 10209 10210 10211 10212 10212 10213 10213 10214 10214 10214 10214 10214 10214 10214 10214 10214 10213 10213 10214 10214 10214 10213 10214 10214 10213 10213 10213 10213 10213 10213 10214 10214 10214 10213 10213 10213 10214 10213 10212 10212 10212 10212 10212 10212 10212 10211 10211 10211 10210
10142 10143 10145 10147 10149 10151 10153 10155 10157 10159 10161 10163 10165 10167 10169 10171 10174 10176 10178 10180 10182 10184 10187 10189 10190 10191 10192 10194 10195 10196 10197 10198 10200 10201 10202 10203 10203 10204 10205 10206 10207 10207 10208 10208 10209 10209 10209 10209 10209 10209 10209 10209 10209 10209 10210 10210 10210 10210 10210 10210 10210 10210 10210 10210 10210 10211 10211 10211 10211 10210 10210 10211 10210 10210 10209 10209 10209 10209 10209 10208 10208 10208 10207 10207 10207
10137 10138 10139 10141 10143 10145 10148 10150 10152 10154 10156 10158 10160 10162 10164 10166 10168 10170 10172 10175 10177 10179 10181 10182 10184 10185 10187 10188 10189 10190 10191 10193 10194 10195 10196 10197 10198 10199 10200 10201 10201 10202 10202 10203 10203 10204 10204 10204 10205 10205 10205 10205 10205 10206 10207 10207 10207 10206 10206 10206 10206 10207 10207 10207 10208 10208 10208 10208 10208 10208 10208 10208 10207 10206 10206 10206 10205 10205 10205 10205 10205 10204 10204 10204 10204
10132 10133 10135 10136 10138 10140 10142 10144 10146 10149 10151 10152 10154 10155 10158 10160 10163 10165 10168 10170 10171 10173 10175 10177 10178 10180 10181 10182 10183 10185 10186 10188 10189 10190 10190 10191 10193 10194 10195 10195 10196 10197 10197 10198 10199 10199 10200 10200 10200 10200 10201 10201 10201 10202 10203 10203 10203 10203 10203 10203 10204 10204 10204 10205 10205 10205 10205 10205 10205 10205 10205 10205 10204 10204 10203 10203 10203 10202 10202 10202 10202 10201 10201 10201 10201
10128 10129 10130 10132 10134 10135 10137 10140 10142 10144 10146 10147 10149 10152 10154 10157 10159 10160 10162 10163 10165 10168 10170 10172 10173 10174 10176 10177 10178 10180 10181 10182 10183 10184 10185 10186 10187 10188 10189 10190 10191 10192 10193 10194 10195 10195 10196 10196 10196 10196 10197 10197 10197 10198 10199 10200 10200 10200 10200 10200 10201 10201 10202 10202 10203 10202 10203 10203 10203 10203 10203 10202 10202 10201 10201 10200 10200 10200 10200 10199 10199 10198 10198 10198 10198
10124 10125 10127 10128 10130 10132 10134 10135 10138 10140 10142 10144 10146 10148 10150 10151 10152 10154 10156 10159 10161 10164 10165 10166 10168 10169 10170 10172 10173 10175 10176 10177 10178 10179 10180 10181 10182 10183 10184 10185 10187 10188 10189 10190 10191 10191 10192 10192 10192 10193 10193 10193 10194 10195 10196 10196 10197 10197 10197 10198 10198 10199 10199 10200 10200 10200 10200 10201 10201 10201 10201 10200 10199 10199 10199 10198 10198 10198 10197 10197 10196 10196 10196 10196 10196
10121 10122 10124 10125 10127 10128 10130 10132 10134 10136 10137 10139 10141 10143 10144 10146 10148 10150 10153 10156 10158 10159 10160 10162 10163 10164 10165 10167 10168 10170 10171 10172 10173 10174 10175 10176 10178 10179 10180 10181 10183 10184 10185 10186 10187 10187 10188 10188 10189 10189 10189 10190 10190 10191 10192 10193 10193 10194 10194 10195 10195 10196 10197 10198 10198 10198 10198 10199 10199 10199 10198 10198 10197 10197 10197 10196 10196 10196 10195 10195 10195 10195 10195 10195 10195
10118 10119 10121 10122 10124 10126 10127 10129 10131 10132 10134 10136 10138 10139 10141 10143 10145 10147 10150 10152 10153 10154 10155 10157 10158 10159 10160 10162 10163 10165 10166 10167 10168 10170 10171 10172 10173 10175 10176 10177 10179 10180 10181 10182 10183 10184 10184 10185 10185 10186 10186 10186 10187 10188 10189 10190 10190 10191 10192 10192 10193 10193 10194 10195 10196 10196 10196 10196 10197 10197 10196 10196 10195 10195 10195 10195 10194 10194 10194 10194 10193 10193 10193 10193 10193
10116 10117 10118 10119 10121 10122 10124 10126 10128 10129 10131 10133 10134 10136 10138 10140 10142 10144 10145 10147 10148 10149 10150 10151 10152 10154 10155 10157 10159 10160 10161 10163 10164 10165 10167 10168 10169 10171 10173 10174 10175 10177 10178 10179 10179 10180 10181 10181 10182 10182 10183 10183 10184 10184 10185 10186 10187 10188 10189 10189 10190 10191 10192 10193 10193 10194 10194 10194 10194 10195 10195 10194 10194 10193 10193 10193 10193 10193 10192 10192 10192 10192 10192 10192 10192
10115 10116 10117 10118 10119 10120 10121 10123 10124 10126 10128 10129 10131 10133 10135 10137 10138 10140 10141 10142 10143 10144 10146 10147 10148 10149 10151 10153 10155 10156 10157 10159 10160 10162 10163 10164 10166 10168 10169 10171 10172 10173 10174 10175 10176 10177 10177 10178 10178 10179 10179 10180 10180 10181 10182 10183 10184 10185 10186 10187 10187 10188 10189 10190 10191 10191 10191 10192 10192 10193 10193 10192 10192 10192 10191 10191 10191 10191 10191 10191 10191 10191 10191 10191 10191
10114 10115 10115 10116 10117 10118 10119 10120 10121 10122 10124 10126 10128 10129 10131 10133 10134 10135 10136 10138 10139 10141 10142 10143 10144 10145 10147 10149 10151 10152 10154 10155 10157 10158 10160 10161 10163 10165 10166 10168 10169 10170 10171 10171 10172 10173 10174 10174 10175 10175 10176 10177 10177 10178 10178 10179 10181 10182 10183 10184 10185 10186 10186 10187 10188 10189 10189 10189 10190 10190 10191 10190 10190 10190 10190 10189 10189 10189 10189 10189 10189 10189 10189 10189 10189